To NAV CANADA Home Page Login to a new session Search on AWWS site Feedback and Comments Disclaimer Vers la page française équivalente Tips FAQ What's new on the site To the Forecasts and Observations / NOTAM section To "File a Flight Plan" website Publications and other links Update of the User's profile FIC Telephone Numbers My Weather Data Folder Route Weather Data Regional Weather Data Local Weather Data To the Forecasts and Observations / NOTAM section
Request Generated 08/05/2015 at 10:23:32 UTC . Weather information available at that time is displayed.

METAR/TAF

KINGSTON/ON    

METAR CYGK 051000Z 29007KT 15SM FEW005 FEW020TCU FEW100 15/14 A2989
RMK CF1TCU1AC1 CF TR TCU TR SLP122 DENSITY ALT 400FT=
LWIS CYGK 050900Z AUTO 27007KT 16/14 A2988=
LWIS CYGK 050800Z AUTO 28006KT 16/15 A2987=

*** REMARK        : Forecast period has ended; this was the last TAF issued
*** REMARQUE : La période de prévision est échue; ceci était le dernier TAF qui a été émis
TAF CYGK 041939Z 0420/0503 26012KT P6SM SCT040 BKN100 TEMPO 0420/0502
P6SM -SHRA OVC040 PROB30 0420/0502 VRB15G25KT 2SM TSRA BR SCT020
BKN050CB
RMK NXT FCST WILL BE ISSUED AT 051145Z=
Your time UTC time
Weather data provided by Environment Canada and NAV CANADA